Orbital Elements at Epoch 2459000.5 (2020-May-31.0) TDB
Reference: JPL 19 (heliocentric ecliptic J2000)
Element | Value | Uncertainty (1-sigma) | Units |
e | .09148115446191384 | 5.8102e-08 | |
a | 2.34372490230362 | 1.5692e-08 | au |
q | 2.129318242499749 | 1.3197e-07 | au |
i | 6.533295699465265 | 5.2969e-06 | deg |
node | 173.6744481876195 | 4.3901e-05 | deg |
peri | 232.0610730415439 | 5.2896e-05 | deg |
M | 62.19307361646731 | 2.551e-05 | deg |
tp | 2458774.088804322268 (2019-Oct-17.58880432) | 9.3956e-05 | TDB |
period | 1310.564435947125 3.59 | 1.3162e-05 3.604e-08 | d yr |
n | .2746908050650966 | 2.7587e-09 | deg/d |
Q | 2.558131562107492 | 1.7127e-08 | au |
|
| | Orbit Determination Parameters
Additional Information
|